FW3145 Weather Reports


Display with metric or nautical units.
time (UTC)temp
F
wind
direction
speed
MPH
gust
MPH
rain 1hr
in
rain 24hr
in
rain mn
in
humidity
%
barometer
mb
20260503211508 57 101 0.0 0.0 0.00 0.00 0.00 77 1018.0
20260503210008 57 46 0.0 0.0 0.00 0.00 0.00 76 1018.1
20260503204508 58 61 0.0 0.0 0.00 0.00 0.00 76 1018.1
20260503203006 58 71 0.0 0.0 0.00 0.00 0.00 75 1018.0
20260503201507 59 50 0.0 0.0 0.00 0.00 0.00 74 1018.0
20260503200006 59 104 0.0 0.0 0.00 0.00 0.00 73 1017.7
20260503194505 59 61 0.0 0.0 0.00 0.00 0.00 74 1017.5
20260503193005 58 42 0.0 0.0 0.00 0.00 0.00 74 1017.4
20260503191504 59 360 0.0 0.0 0.00 0.00 0.00 71 1017.4
20260503190004 61 47 0.0 0.0 0.00 0.00 0.00 69 1017.3
20260503184505 61 105 0.0 0.0 0.00 0.00 0.00 69 1017.0
20260503183002 62 28 0.0 0.0 0.00 0.00 0.00 69 1016.7
20260503181503 62 60 0.0 0.0 0.00 0.00 0.00 69 1016.8
20260503180002 63 35 0.0 0.0 0.00 0.00 0.00 66 1016.7
20260503174502 64 26 0.0 0.0 0.00 0.00 0.00 64 1016.6
20260503173111 66 96 0.0 0.0 0.00 0.00 0.00 61 1016.4
20260503173001 66 71 0.0 0.0 0.00 0.00 0.00 60 1016.3
20260503171600 68 121 0.0 0.0 0.00 0.00 0.00 56 1016.2
20260503090105 65 161 0.0 0.0 0.00 0.00 0.00 45 1019.0
20260503081547 62 136 0.0 0.0 0.00 0.00 0.00 53 1019.3
20260503071536 56 164 0.0 0.0 0.00 0.00 0.00 65 1019.8
20260503054509 50 5 0.0 0.0 0.00 0.00 0.00 75 1019.8
20260503053005 47 5 0.0 0.0 0.00 0.00 0.00 78 1019.7
20260503051502 47 5 0.0 0.0 0.00 0.00 0.00 81 1019.6
20260503050001 44 345 0.0 0.0 0.00 0.00 0.00 81 1019.6
20260503044559 42 345 0.0 0.0 0.00 0.00 0.00 82 1019.5
20260503043056 41 345 0.0 0.0 0.00 0.00 0.00 82 1019.4
20260503041555 41 346 0.0 0.0 0.00 0.00 0.00 82 1019.3
20260503040104 41 346 0.0 0.0 0.00 0.00 0.00 82 1019.3
20260503034550 41 346 0.0 0.0 0.00 0.00 0.00 82 1019.3
20260503033050 41 346 0.0 0.0 0.00 0.00 0.00 82 1019.1
20260503031601 41 345 0.0 0.0 0.00 0.00 0.00 81 1019.1
20260503030050 41 346 0.0 0.0 0.00 0.00 0.00 81 1019.1
20260503024547 42 346 0.0 0.0 0.00 0.00 0.00 81 1019.1
20260503023049 42 346 0.0 0.0 0.00 0.00 0.00 81 1019.2
20260503021544 42 346 0.0 0.0 0.00 0.00 0.00 80 1019.1
20260503020043 42 346 0.0 0.0 0.00 0.00 0.00 80 1019.1
20260503014554 43 346 0.0 0.0 0.00 0.00 0.00 80 1019.3
20260503013039 43 346 0.0 0.0 0.00 0.00 0.00 79 1019.4
20260503011536 44 345 0.0 0.0 0.00 0.00 0.00 79 1019.5
20260503010037 44 345 0.0 0.0 0.00 0.00 0.00 79 1019.5
20260503004534 44 345 0.0 0.0 0.00 0.00 0.00 78 1019.7
20260503003033 44 345 0.0 0.0 0.00 0.00 0.00 78 1019.7
20260503001538 44 345 0.0 0.0 0.00 0.00 0.00 78 1019.8
20260503000028 45 345 0.0 0.0 0.00 0.00 0.00 77 1020.0
20260502234528 45 345 0.0 0.0 0.00 0.00 0.00 76 1020.0
20260502233026 46 345 0.0 0.0 0.00 0.00 0.00 76 1020.1
20260502231522 46 345 0.0 0.0 0.00 0.00 0.00 75 1020.3
20260502230024 46 344 0.0 0.0 0.00 0.00 0.00 75 1020.4
20260502224518 47 344 0.0 0.0 0.00 0.00 0.00 74 1020.6
20260502223018 47 345 0.0 0.0 0.00 0.00 0.00 73 1020.5
20260502221513 48 345 0.0 0.0 0.00 0.00 0.00 72 1020.5
20260502213036 49 355 0.0 0.0 0.00 0.00 0.00 70 1020.5